Location: Street
(51.1247°N, 2.7429°W)
Time: 02:35:06
(UTC+00:00)

deb Explorer IX - Pass Details

Date: 13 December 2020
Orbit: 536 x 1104 km, 38.8° (Epoch: 20 January)

Event Time Altitude Azimuth Distance (km) Brightness Sun altitude
Rises 12:43:38 0° 245° (WSW) 3,891 ? 15.2°
Reaches altitude 10° 12:46:42 10° 235° (SW) 2,955 ? 15.1°
Maximum altitude 12:52:54 30° 178° (S) 1,837 ? 14.9°
Drops below altitude 10° 12:58:54 10° 120° (ESE) 2,865 ? 14.7°
Sets 13:01:50 0° 110° (ESE) 3,756 ? 14.6°
